Weather History for KIER - February, 2014

Change the Weather History Date:

Friday, February 14, 2014

  Actual Average Record
Temperature  
Mean Temperature 52 °F -  
Max Temperature 71 °F 65 °F 84 °F (1945)
Min Temperature 33 °F 40 °F 20 °F (1960)
Degree Days  
Heating Degree Days 13    
Growing Degree Days 2 (Base 50)    
Moisture  
Dew Point 42 °F    
Average Humidity 73    
Maximum Humidity 100    
Minimum Humidity 39    
Precipitation  
Precipitation 0.00 in - - ()
Sea Level Pressure  
Sea Level Pressure 29.91 in    
Wind  
Wind Speed 5 mph (WSW)    
Max Wind Speed 18 mph    
Max Gust Speed 26 mph    
Visibility 8 miles    
Events Fog    
Averages and records for this station are not official NWS values.
T = Trace of Precipitation, MM = Missing Value Source: NWS Daily Summary

Daily Weather History Graph

Daily Weather History Graph

Search for Another Location

Airport or City:

Trip Planner

Search our weather history database for the weather conditions in past years. The results will help you decide how hot, cold, wet, or windy it might be!

Date:

Astronomy

Feb. 14, 2014 Rise Set
Actual Time 6:55 AM CST 5:58 PM CST
Civil Twilight 6:30 AM CST 6:23 PM CST
Nautical Twilight 6:01 AM CST 6:51 PM CST
Astronomical Twilight 5:33 AM CST 7:20 PM CST
Moon 5:59 PM CST (2/14) 6:24 AM CST (2/14)
Length of Visible Light 11h 53m
Length of Day
11h 03m
Full, 100% of the Moon is Illuminated
Feb 14
Full
Feb 14
Full
Feb 22
Last Quarter
Mar 1
New
Mar 8
First Quarter

Hourly Weather History & Observations

Time (CST) Temp. Windchill Dew Point Humidity Pressure Visibility Wind Dir Wind Speed Gust Speed Precip Events Conditions
12:15 AM 39.4 °F - 37.4 °F 93% 29.98 in 10.0 mi Calm Calm - N/A   Clear
12:35 AM 39.2 °F - 37.4 °F 93% 29.98 in 10.0 mi Calm Calm - N/A   Clear
12:55 AM 38.3 °F - 36.9 °F 95% 29.98 in 10.0 mi Calm Calm - N/A   Clear
1:15 AM 37.9 °F 34.4 °F 36.9 °F 96% 29.96 in 10.0 mi South 4.6 mph - N/A   Clear
1:35 AM 37.0 °F 32.4 °F 36.5 °F 98% 29.93 in 10.0 mi South 5.8 mph - N/A   Clear
1:55 AM 38.3 °F 35.9 °F 37.4 °F 97% 29.93 in 10.0 mi SSE 3.5 mph - N/A   Clear
2:15 AM 37.9 °F - 37.2 °F 97% 29.94 in 10.0 mi Calm Calm - N/A   Clear
2:35 AM 35.2 °F - 34.9 °F 99% 29.94 in 2.0 mi Calm Calm - N/A   Clear
2:55 AM 34.7 °F - 34.7 °F 100% 29.94 in 4.0 mi Calm Calm - N/A   Clear
3:15 AM 35.1 °F 31.0 °F 35.1 °F 100% 29.94 in 5.0 mi SSE 4.6 mph - N/A   Clear
3:35 AM 34.9 °F 32.0 °F 34.9 °F 100% 29.94 in 3.0 mi South 3.5 mph - N/A   Clear
3:55 AM 34.5 °F 29.4 °F 34.5 °F 100% 29.92 in 3.0 mi SSE 5.8 mph - N/A   Clear
4:15 AM 34.5 °F - 34.5 °F 100% 29.92 in 5.0 mi Calm Calm - N/A   Clear
4:35 AM 34.5 °F - 34.5 °F 100% 29.92 in 4.0 mi Calm Calm - N/A   Clear
4:55 AM 34.5 °F 31.6 °F 34.5 °F 100% 29.92 in 2.5 mi SE 3.5 mph - N/A   Clear
5:15 AM 34.0 °F 29.8 °F 34.0 °F 100% 29.92 in 1.2 mi South 4.6 mph - N/A   Mist
5:35 AM 33.8 °F 29.6 °F 33.8 °F 100% 29.91 in 1.2 mi South 4.6 mph - N/A   Mist
5:55 AM 34.7 °F 31.8 °F 34.7 °F 100% 29.91 in 0.5 mi SSE 3.5 mph - N/A Fog Fog
6:15 AM 33.8 °F 30.8 °F 33.8 °F 100% 29.91 in 0.2 mi SSE 3.5 mph - N/A Fog Fog
6:35 AM 34.7 °F 31.8 °F 34.7 °F 100% 29.90 in 0.5 mi South 3.5 mph - N/A Fog Fog
6:55 AM 34.3 °F - 34.3 °F 100% 29.91 in 0.2 mi Calm Calm - N/A Fog Fog
7:15 AM 34.7 °F - 34.7 °F 100% 29.91 in 0.2 mi Calm Calm - N/A Fog Fog
7:35 AM 35.1 °F 32.2 °F 35.1 °F 100% 29.90 in 0.2 mi South 3.5 mph - N/A Fog Fog
7:55 AM 35.2 °F - 35.2 °F 100% 29.89 in 0.5 mi Calm Calm - N/A Fog Fog
8:15 AM 39.6 °F - 39.6 °F 100% 29.89 in 1.0 mi Calm Calm - N/A   Mist
8:35 AM 44.8 °F 42.4 °F 44.8 °F 100% 29.91 in 4.0 mi SSW 4.6 mph - N/A   Clear
8:55 AM 47.1 °F - 47.1 °F 100% 29.90 in 7.0 mi SSW 5.8 mph - N/A   Clear
9:15 AM 49.3 °F - 47.8 °F 95% 29.90 in 10.0 mi SSW 6.9 mph - N/A   Clear
9:35 AM 52.0 °F - 48.7 °F 89% 29.91 in 10.0 mi SSW 4.6 mph - N/A   Scattered Clouds
9:55 AM 55.2 °F - 50.5 °F 84% 29.89 in 10.0 mi SW 5.8 mph - N/A   Scattered Clouds
10:15 AM 57.0 °F - 51.1 °F 81% 29.88 in 10.0 mi SW 10.4 mph - N/A   Scattered Clouds
10:35 AM 59.5 °F - 52.3 °F 77% 29.89 in 10.0 mi SSW 8.1 mph - N/A   Scattered Clouds
10:55 AM 62.1 °F - 52.9 °F 72% 29.88 in 10.0 mi SW 16.1 mph 21.9 mph N/A   Mostly Cloudy
11:15 AM 63.3 °F - 53.4 °F 70% 29.87 in 10.0 mi WSW 9.2 mph - N/A   Mostly Cloudy
11:35 AM 64.8 °F - 52.9 °F 65% 29.85 in 10.0 mi SSW 13.8 mph 24.2 mph N/A   Scattered Clouds
11:55 AM 65.5 °F - 52.5 °F 63% 29.83 in 10.0 mi SW 13.8 mph 24.2 mph N/A   Scattered Clouds
12:15 PM 65.7 °F - 52.5 °F 62% 29.82 in 10.0 mi SW 12.7 mph 26.5 mph N/A   Scattered Clouds
12:35 PM 66.9 °F - 53.4 °F 62% 29.80 in 10.0 mi SW 15.0 mph 26.5 mph N/A   Scattered Clouds
12:55 PM 68.2 °F - 53.2 °F 59% 29.80 in 10.0 mi SW 11.5 mph 21.9 mph N/A   Scattered Clouds
1:15 PM 68.9 °F - 53.4 °F 58% 29.80 in 10.0 mi SSW 18.4 mph 24.2 mph N/A   Scattered Clouds
1:35 PM 69.1 °F - 53.6 °F 58% 29.78 in 10.0 mi SW 10.4 mph 19.6 mph N/A   Scattered Clouds
1:55 PM 70.3 °F - 53.4 °F 55% 29.80 in 10.0 mi WSW 13.8 mph 23.0 mph N/A   Scattered Clouds
2:15 PM 68.9 °F - 53.2 °F 57% 29.80 in 10.0 mi West 10.4 mph 18.4 mph N/A   Mostly Cloudy
2:35 PM 68.4 °F - 54.1 °F 60% 29.81 in 10.0 mi West 10.4 mph - N/A   Overcast
2:55 PM 68.0 °F - 53.6 °F 60% 29.82 in 10.0 mi WSW 11.5 mph 18.4 mph N/A   Overcast
3:15 PM 70.2 °F - 54.3 °F 57% 29.81 in 10.0 mi West 9.2 mph 18.4 mph N/A   Mostly Cloudy
3:35 PM 70.5 °F - 54.0 °F 56% 29.81 in 10.0 mi West 9.2 mph 19.6 mph N/A   Scattered Clouds
3:55 PM 71.6 °F - 53.2 °F 52% 29.80 in 10.0 mi West 13.8 mph 18.4 mph N/A   Scattered Clouds
4:15 PM 71.2 °F - 52.3 °F 51% 29.82 in 10.0 mi West 12.7 mph 20.7 mph N/A   Clear
4:35 PM 70.7 °F - 52.2 °F 52% 29.83 in 10.0 mi West 16.1 mph 21.9 mph N/A   Clear
4:55 PM 70.0 °F - 52.3 °F 53% 29.83 in 10.0 mi West 10.4 mph 16.1 mph N/A   Clear
5:15 PM 69.4 °F - 51.1 °F 52% 29.84 in 10.0 mi WNW 10.4 mph 19.6 mph N/A   Clear
5:35 PM 67.5 °F - 49.8 °F 53% 29.85 in 10.0 mi WNW 10.4 mph - N/A   Clear
5:55 PM 64.8 °F - 48.4 °F 55% 29.86 in 10.0 mi West 6.9 mph - N/A   Clear
6:15 PM 61.2 °F - 47.7 °F 61% 29.87 in 10.0 mi WNW 6.9 mph - N/A   Clear
6:35 PM 61.0 °F - 46.4 °F 59% 29.89 in 10.0 mi NNW 8.1 mph - N/A   Clear
6:55 PM 59.2 °F - 44.2 °F 58% 29.91 in 10.0 mi NNW 5.8 mph - N/A   Clear
7:15 PM 57.7 °F - 43.7 °F 60% 29.92 in 10.0 mi NW 5.8 mph - N/A   Clear
7:35 PM 57.6 °F - 42.8 °F 58% 29.93 in 10.0 mi North 8.1 mph - N/A   Clear
7:55 PM 56.3 °F - 41.7 °F 58% 29.95 in 10.0 mi North 15.0 mph 20.7 mph N/A   Clear
8:15 PM 60.1 °F - 37.9 °F 44% 29.96 in 10.0 mi NNW 12.7 mph 24.2 mph N/A   Clear
8:35 PM 58.6 °F - 36.9 °F 44% 29.98 in 10.0 mi NNW 12.7 mph 18.4 mph N/A   Clear
8:55 PM 57.7 °F - 35.1 °F 43% 30.00 in 10.0 mi NNW 11.5 mph 18.4 mph N/A   Clear
9:15 PM 55.8 °F - 34.9 °F 45% 30.01 in 10.0 mi NNW 11.5 mph - N/A   Clear
9:35 PM 55.4 °F - 32.9 °F 43% 30.02 in 10.0 mi NNW 9.2 mph - N/A   Clear
9:55 PM 55.4 °F - 31.6 °F 40% 30.02 in 10.0 mi North 12.7 mph 19.6 mph N/A   Clear
10:15 PM 54.7 °F - 31.1 °F 41% 30.03 in 10.0 mi North 11.5 mph - N/A   Clear
10:35 PM 53.8 °F - 30.4 °F 41% 30.03 in 10.0 mi North 10.4 mph - N/A   Clear
10:55 PM 53.6 °F - 29.3 °F 39% 30.03 in 10.0 mi North 10.4 mph - N/A   Clear
11:15 PM 53.2 °F - 28.9 °F 39% 30.03 in 10.0 mi North 9.2 mph 16.1 mph N/A   Clear
11:35 PM 52.5 °F - 29.1 °F 41% 30.04 in 10.0 mi North 8.1 mph - N/A   Clear
11:55 PM 50.5 °F - 28.8 °F 43% 30.04 in 10.0 mi North 5.8 mph - N/A   Clear